STARLINK-11453 [DTC]

Last updated on Thu Jan 23 2025 00:02:04 GMT+0000 (Coordinated Universal Time)

1 62411U 24249C 25022.43696492 .00008107 00000+0 49380-4 0 9992 2 62411 42.9976 128.1405 0001953 273.9642 86.1005 15.77867855 4783
UTC large
Height (km)
Speed (km/s)
/
Latitude / Longitude
Inclination (degrees)
Orbital Period (minutes)
Azimuth
Elevation
Range (km)
Doppler Factor

Next 0 passes for location: London (51.5072 / 0.1276)

Sorry there are no passes over London.